User: anonymous   Login
Location: Oshawa
(43.9000°N, 78.8670°W)
Time: 03:08:01
(UTC-04:00)
Language:

Iridium 54 - Orbit

View from above orbital plane
View from above orbital plane
View from above satellite
View from above satellite

Ground track
Ground track

The orbit data is extracted from the following two-line orbital elements,

1 25171U 98010C   16268.47906196 -.00000023  00000-0 -15455-4 0  9990
2 25171  86.3923 101.4969 0001953  81.3875 278.7541 14.34217309973848
Epoch (UTC): 24 September 2016 11:29:50
Eccentricity: 0.0001953
inclination: 86.3923°
perigee height: 776 km
apogee height: 779 km
right ascension of ascending node: 101.4969°
argument of perigee: 81.3875°
revolutions per day: 14.34217309
mean anomaly at epoch: 278.7541°
orbit number at epoch: 97384

The dashed part of the orbit path shows where the satellite is in the earth's shadow,  

DLR